| time (UTC) | temp C | wind direction | speed KPH | gust KPH | rain 1hr cm | rain 24hr cm | rain mn cm | humidity % | barometer mb |
| 20260507154545 | 10 | 288 | 6.4 | 11.3 | 0.00 | 2.21 | 0.00 | 79 | 1002.9 |
| 20260507153025 | 9 | 242 | 1.6 | 4.8 | 0.00 | 2.21 | 0.00 | 77 | 1003.0 |
| 20260507151536 | 9 | 307 | 1.6 | 11.3 | 0.00 | 2.21 | 0.00 | 79 | 1003.3 |
| 20260507150005 | 8 | 250 | 4.8 | 16.1 | 0.00 | 2.21 | 0.00 | 83 | 1003.2 |
| 20260507144559 | 8 | 289 | 6.4 | 11.3 | 0.00 | 2.21 | 0.00 | 85 | 1003.4 |
| 20260507143044 | 8 | 311 | 3.2 | 12.9 | 0.00 | 2.21 | 0.00 | 84 | 1003.6 |
| 20260507141536 | 7 | 306 | 6.4 | 14.5 | 0.00 | 2.21 | 0.00 | 87 | 1003.7 |
| 20260507140018 | 7 | 271 | 4.8 | 9.7 | 0.00 | 2.21 | 0.00 | 89 | 1003.7 |
| 20260507134526 | 7 | 302 | 6.4 | 9.7 | 0.00 | 2.21 | 0.00 | 88 | 1003.9 |
| 20260507133057 | 7 | 318 | 4.8 | 9.7 | 0.00 | 2.21 | 2.21 | 87 | 1003.8 |
| 20260507131600 | 7 | 325 | 4.8 | 11.3 | 0.00 | 2.21 | 2.21 | 88 | 1003.6 |
| 20260507130034 | 6 | 287 | 4.8 | 9.7 | 0.00 | 2.21 | 2.21 | 89 | 1003.9 |
| 20260507124534 | 6 | 320 | 6.4 | 11.3 | 0.00 | 2.21 | 2.21 | 90 | 1003.8 |
| 20260507123021 | 6 | 302 | 6.4 | 11.3 | 0.00 | 2.21 | 2.21 | 91 | 1003.7 |
| 20260507121519 | 6 | 331 | 4.8 | 12.9 | 0.00 | 2.21 | 2.21 | 92 | 1003.8 |
| 20260507120018 | 6 | 317 | 3.2 | 11.3 | 0.00 | 2.21 | 2.21 | 92 | 1003.8 |
| 20260507114525 | 6 | 344 | 8.0 | 12.9 | 0.00 | 2.21 | 2.21 | 92 | 1003.8 |
| 20260507113018 | 6 | 333 | 6.4 | 11.3 | 0.00 | 2.24 | 2.21 | 93 | 1003.5 |
| 20260507111521 | 5 | 292 | 4.8 | 11.3 | 0.00 | 2.24 | 2.21 | 94 | 1003.5 |
| 20260507110015 | 5 | 335 | 11.3 | 19.3 | 0.00 | 2.24 | 2.21 | 93 | 1003.2 |
| 20260507104513 | 5 | 315 | 6.4 | 16.1 | 0.00 | 2.24 | 2.21 | 94 | 1003.4 |
| 20260507103112 | 5 | 291 | 8.0 | 12.9 | 0.03 | 2.36 | 2.21 | 94 | 1003.6 |
| 20260507101558 | 5 | 316 | 6.4 | 14.5 | 0.03 | 2.36 | 2.21 | 94 | 1003.3 |
| 20260507100054 | 5 | 329 | 6.4 | 11.3 | 0.03 | 2.36 | 2.21 | 94 | 1003.1 |
| 20260507094534 | 5 | 329 | 6.4 | 11.3 | 0.05 | 2.36 | 2.21 | 94 | 1002.8 |
| 20260507093034 | 5 | 329 | 9.7 | 16.1 | 0.03 | 2.44 | 2.18 | 94 | 1002.8 |
| 20260507091515 | 5 | 331 | 8.0 | 12.9 | 0.03 | 2.44 | 2.18 | 94 | 1002.9 |
| 20260507090014 | 5 | 342 | 8.0 | 14.5 | 0.03 | 2.44 | 2.18 | 94 | 1002.8 |
| 20260507084557 | 5 | 331 | 11.3 | 20.9 | 0.00 | 2.41 | 2.16 | 94 | 1002.7 |
| 20260507083053 | 6 | 333 | 6.4 | 14.5 | 0.00 | 2.57 | 2.16 | 95 | 1002.6 |
| 20260507081534 | 6 | 321 | 8.0 | 14.5 | 0.00 | 2.57 | 2.16 | 94 | 1002.5 |
| 20260507080034 | 6 | 350 | 9.7 | 14.5 | 0.03 | 2.57 | 2.16 | 94 | 1002.3 |
| 20260507074526 | 6 | 310 | 6.4 | 16.1 | 0.03 | 2.57 | 2.16 | 95 | 1002.4 |
| 20260507073014 | 6 | 325 | 9.7 | 17.7 | 0.05 | 2.67 | 2.16 | 95 | 1002.2 |
| 20260507071558 | 6 | 336 | 9.7 | 19.3 | 0.10 | 2.67 | 2.16 | 95 | 1002.1 |
| 20260507064537 | 6 | 340 | 9.7 | 16.1 | 0.20 | 2.64 | 2.13 | 95 | 1002.5 |
| 20260507063035 | 6 | 340 | 4.8 | 11.3 | 0.23 | 2.62 | 2.11 | 95 | 1002.2 |
| 20260507061513 | 6 | 344 | 8.0 | 16.1 | 0.23 | 2.57 | 2.06 | 95 | 1002.5 |
| 20260507060010 | 6 | 360 | 6.4 | 14.5 | 0.20 | 2.51 | 2.01 | 95 | 1002.6 |
| 20260507054555 | 6 | 328 | 11.3 | 17.7 | 0.15 | 2.44 | 1.93 | 95 | 1002.6 |
| 20260507053053 | 7 | 323 | 9.7 | 16.1 | 0.15 | 2.39 | 1.88 | 95 | 1003.1 |
| 20260507051539 | 7 | 344 | 8.0 | 16.1 | 0.15 | 2.34 | 1.83 | 95 | 1003.0 |
| 20260507050034 | 7 | 336 | 9.7 | 17.7 | 0.23 | 2.31 | 1.80 | 95 | 1002.7 |
| 20260507044509 | 7 | 329 | 6.4 | 16.1 | 0.28 | 2.29 | 1.78 | 95 | 1002.5 |
| 20260507043008 | 7 | 346 | 4.8 | 12.9 | 0.30 | 2.24 | 1.73 | 96 | 1002.5 |
| 20260507041550 | 7 | 76 | 0.0 | 1.6 | 0.28 | 2.18 | 1.68 | 95 | 1002.3 |
| 20260507040048 | 7 | 77 | 0.0 | 4.8 | 0.18 | 2.08 | 1.57 | 95 | 1002.5 |
| 20260507034548 | 7 | 86 | 0.0 | 4.8 | 0.13 | 2.01 | 1.50 | 95 | 1002.8 |
| 20260507033030 | 7 | 59 | 0.0 | 4.8 | 0.13 | 1.93 | 1.42 | 95 | 1002.9 |
| 20260507031511 | 7 | 344 | 0.0 | 3.2 | 0.13 | 1.91 | 1.40 | 95 | 1003.2 |
| 20260507030006 | 7 | 344 | 0.0 | 4.8 | 0.18 | 1.91 | 1.40 | 95 | 1003.5 |
| 20260507024556 | 7 | 343 | 0.0 | 4.8 | 0.18 | 1.88 | 1.37 | 95 | 1003.6 |
| 20260507023045 | 7 | 342 | 0.0 | 4.8 | 0.10 | 1.80 | 1.30 | 95 | 1004.0 |
| 20260507021524 | 7 | 338 | 0.0 | 9.7 | 0.08 | 1.78 | 1.27 | 95 | 1004.3 |
| 20260507020024 | 7 | 341 | 0.0 | 9.7 | 0.05 | 1.73 | 1.22 | 95 | 1004.4 |
| 20260507014506 | 7 | 346 | 3.2 | 11.3 | 0.08 | 1.70 | 1.19 | 95 | 1004.6 |
| 20260507013005 | 7 | 351 | 1.6 | 8.0 | 0.08 | 1.73 | 1.19 | 95 | 1004.5 |
| 20260507011548 | 7 | 355 | 0.0 | 6.4 | 0.10 | 1.73 | 1.19 | 95 | 1004.7 |
| 20260507010059 | 7 | 20 | 0.0 | 6.4 | 0.10 | 1.70 | 1.17 | 95 | 1004.8 |
| 20260507004527 | 7 | 85 | 0.0 | 0.0 | 0.08 | 1.65 | 1.12 | 95 | 1004.8 |
| 20260507003027 | 7 | 85 | 0.0 | 0.0 | 0.13 | 1.73 | 1.12 | 95 | 1004.9 |
| 20260507001509 | 7 | 85 | 0.0 | 3.2 | 0.13 | 1.70 | 1.09 | 95 | 1004.7 |
| 20260507000007 | 7 | 85 | 0.0 | 4.8 | 0.15 | 1.68 | 1.07 | 95 | 1004.9 |
| 20260506234548 | 7 | 78 | 0.0 | 4.8 | 0.15 | 1.65 | 1.04 | 95 | 1004.9 |
| 20260506233058 | 7 | 78 | 0.0 | 3.2 | 0.15 | 1.78 | 0.99 | 95 | 1005.4 |
| 20260506231529 | 7 | 77 | 0.0 | 6.4 | 0.18 | 1.75 | 0.97 | 95 | 1005.2 |
| 20260506230029 | 7 | 355 | 0.0 | 3.2 | 0.23 | 1.70 | 0.91 | 95 | 1005.4 |
| 20260506224511 | 7 | 355 | 0.0 | 3.2 | 0.28 | 1.68 | 0.89 | 95 | 1005.3 |
| 20260506223008 | 8 | 350 | 0.0 | 3.2 | 0.25 | 1.93 | 0.84 | 95 | 1005.2 |
| 20260506221551 | 8 | 338 | 0.0 | 3.2 | 0.25 | 1.88 | 0.79 | 95 | 1005.2 |
| 20260506220052 | 8 | 343 | 8.0 | 14.5 | 0.18 | 1.78 | 0.69 | 95 | 1005.4 |
| 20260506214529 | 8 | 68 | 0.0 | 4.8 | 0.15 | 1.70 | 0.61 | 95 | 1005.0 |
| 20260506213027 | 8 | 69 | 0.0 | 3.2 | 0.15 | 1.73 | 0.58 | 95 | 1005.5 |
| 20260506211509 | 8 | 69 | 0.0 | 3.2 | 0.13 | 1.68 | 0.53 | 95 | 1005.4 |
| 20260506210007 | 8 | 71 | 0.0 | 6.4 | 0.15 | 1.65 | 0.51 | 94 | 1005.5 |
| 20260506204555 | 8 | 46 | 0.0 | 4.8 | 0.18 | 1.60 | 0.46 | 94 | 1005.7 |
| 20260506203052 | 8 | 65 | 0.0 | 3.2 | 0.23 | 1.57 | 0.43 | 94 | 1005.8 |
| 20260506201550 | 8 | 69 | 0.0 | 8.0 | 0.25 | 1.55 | 0.41 | 94 | 1005.8 |
| 20260506200049 | 8 | 60 | 0.0 | 4.8 | 0.23 | 1.50 | 0.36 | 94 | 1006.0 |
| 20260506194547 | 8 | 344 | 0.0 | 4.8 | 0.18 | 1.42 | 0.28 | 94 | 1006.5 |
| 20260506193047 | 8 | 336 | 4.8 | 11.3 | 0.10 | 1.35 | 0.20 | 93 | 1006.8 |
| 20260506191542 | 8 | 346 | 1.6 | 8.0 | 0.08 | 1.30 | 0.15 | 93 | 1006.6 |
| 20260506190041 | 8 | 328 | 0.0 | 12.9 | 0.08 | 1.27 | 0.13 | 93 | 1006.6 |
| 20260506184525 | 9 | 75 | 1.6 | 8.0 | 0.05 | 1.24 | 0.10 | 93 | 1006.1 |
| 20260506183018 | 9 | 65 | 1.6 | 8.0 | 0.05 | 1.24 | 0.10 | 92 | 1006.7 |
| 20260506181557 | 9 | 64 | 0.0 | 1.6 | 0.05 | 1.22 | 0.08 | 92 | 1007.4 |
| 20260506180056 | 9 | 65 | 0.0 | 4.8 | 0.03 | 1.19 | 0.05 | 91 | 1007.7 |
| 20260506174538 | 9 | 22 | 0.0 | 4.8 | 0.03 | 1.19 | 0.05 | 91 | 1007.8 |
| 20260506173035 | 9 | 344 | 0.0 | 6.4 | 0.03 | 1.19 | 0.05 | 90 | 1008.3 |
| 20260506171517 | 9 | 320 | 4.8 | 8.0 | 0.00 | 1.17 | 0.03 | 89 | 1008.7 |
| 20260506170014 | 9 | 273 | 1.6 | 6.4 | 0.00 | 1.17 | 0.03 | 85 | 1008.6 |
| 20260506164556 | 9 | 271 | 0.0 | 3.2 | 0.03 | 1.17 | 0.03 | 87 | 1008.3 |
| 20260506163056 | 10 | 194 | 0.0 | 1.6 | 0.03 | 1.17 | 0.03 | 88 | 1008.2 |
| 20260506161539 | 10 | 194 | 0.0 | 1.6 | 0.03 | 1.17 | 0.03 | 87 | 1008.2 |
| 20260506160035 | 10 | 236 | 0.0 | 6.4 | 0.03 | 1.17 | 0.03 | 86 | 1008.8 |